Voltar ao catálogo

STARLINK-34217

AtivoComunicaçõesVLEO
NORAD 64488·PAYLOAD·🇺🇸 United States

Lançado Jun 23, 2025 de Cape Canaveral Space Force Station

Loading…

Próximas Passagens (próximas 24 horas)

TLE

AtualizadoSource: CelesTrak SupGP

Época: Sep 15, 2026, 03:24 UTC

1 64488C 25133S   26258.14215278  .00038149  00000+0  11271-2 0  2583
2 64488  53.1576 315.0586 0001264  87.1826 111.6622 15.34372966    18

Acompanhe STARLINK-34217 em tempo real com AllMySat

Download on the App Store